Location: Waco, TX
(31.5480°N, 97.1670°W)
Time: 02:39:50
(UTC-06:00)

ISS - Pass Details

Date: 09 November 2018
Orbit: 401 x 408 km, 51.6° (Epoch: 20 November)

Event Time Altitude Azimuth Distance (km) Brightness Sun altitude
Rises 07:34:08 0° 324° (NW) 2,323 -0.5 7.6°
Reaches altitude 10° 07:36:21 10° 334° (NNW) 1,462 -1.4 8.0°
Maximum altitude 07:39:21 33° 40° (NE) 708 -2.3 8.6°
Drops below altitude 10° 07:42:21 10° 107° (ESE) 1,460 1.5 9.1°
Sets 07:44:33 0° 117° (ESE) 2,318 2.5 9.6°
